Regional Weather Roundup
Issued by NWS

Home | Current Version | Previous Version | Text Only | Print | Product List | Glossary Off
Versions: 1 2 3 4 5 6 7 8 9 10 11 12 13 14 15 16 17 18 19 20 21 22 23 24 25 26 27 28 29 30 31 32 33 34 35 36 37 38 39 40 41 42 43 44 45 46 47 48 49 50

000
ASUS43 KLOT 112308
RWRIL

ILLINOIS REGIONAL WEATHER ROUNDUP
NATIONAL WEATHER SERVICE CHICAGO/ROMEOVILLE IL
500 PM CST MON DEC 11 2017

NOTE: "FAIR" INDICATES FEW OR NO CLOUDS BELOW 12,000 FEET WITH NO
SIGNIFICANT WEATHER AND/OR OBSTRUCTIONS TO VISIBILITY.

* THESE STATIONS ARE NOT UNDER NWS QUALITY CONTROL. THEY ALSO MAY NOT
  REPORT WEATHER SUCH AS PRECIPITATION OR FOG.

ILZ001-002-007-009-015-016-024-120000-
NORTHWEST ILLINOIS

CITY           SKY/WX    TMP DP  RH WIND       PRES   REMARKS
MOLINE         CLOUDY    36  33  89 NW15      29.82R WCI  27
STERLING*        N/A    N/A N/A N/A MISG        N/A
SAVANNA*       CLOUDY    32  32  97 NW7       29.80R WCI  26
$$

ILZ003-004-008-010-011-017-018-120000-
NORTH CENTRAL ILLINOIS

CITY           SKY/WX    TMP DP  RH WIND       PRES   REMARKS
ROCKFORD       CLOUDY    31  30  96 NW5       29.78R FOG     WCI  26
FREEPORT*      CLOUDY    32  30  92 NW6       29.79R WCI  26
ROCHELLE*      LGT SNOW  32  32  99 NW6       29.77R VSB 3/4 WCI  26
DE KALB*       LGT SNOW  32  32  99 NW7       29.76R WCI  26
PERU*          MOCLDY    34  30  86 NW25G37   29.77R WCI  21
$$

ILZ005-006-012>014-019>023-120000-
NORTHEAST ILLINOIS

CITY           SKY/WX    TMP DP  RH WIND       PRES   REMARKS
CHICAGO-OHARE  FLURRIES  35  27  72 N7        29.72R WCI  29
CHICAGO-MIDWAY CLOUDY    38  27  64 N6        29.72R WCI  33
AURORA         CLOUDY    36  27  69 N10       29.74R WCI  28
LANSING*       CLOUDY    36  28  72 CALM      29.70R
JOLIET*        CLOUDY    39  28  65 N5        29.71R
WAUKEGAN       CLOUDY    31  30  96 NW6       29.73R FOG     WCI  25
DUPAGE AIRPORT CLOUDY    35  28  75 N9        29.72R WCI  28
KANKAKEE*      PTCLDY    37  26  66 NE6       29.67R WCI  32
WHEELING       SNOW      33  31  92 NW6       29.75R VSB 1/2 WCI  28
MORRIS*        CLOUDY    37  27  68 N6        29.71R WCI  32
ROMEOVILLE*    CLOUDY    36  28  71 N6        29.72R WCI  31
NORTHERLY ISL    N/A     36  29  76 CALM        N/A
$$

LMZ740>746-120000-
SOUTHERN LAKE MICHIGAN

STATION/POSITION SKY/WX   TEMP    WIND        PRES    VSBY  WAVE
                          AIR SEA DIR/SP/G                  HT/PER
                          (F)     (DEG/KT/KT) (MB)    (MI)  (FT/S)
HARRISON CRIB              38     290/  1/  1   N/A
BURNHAM HARBOR             36      10/  3/  5   N/A
CALUMET HARBOR             36      40/  5/  5 1005.4R
BURNS HARBOR               35      60/  6/  7 1006.8R
MICHIGAN CITY              33      50/  5/  6   N/A
$$

ILZ025>027-034>036-040-047-049-050-058-095>099-120000-
WEST-CENTRAL ILLINOIS

CITY           SKY/WX    TMP DP  RH WIND       PRES   REMARKS
QUINCY         CLOUDY    44  33  65 NW28G38   29.87R
GALESBURG*     CLOUDY    38  33  81 NW18G26   29.82R WCI  28
MACOMB*        CLOUDY    40  33  74 NW26G36   29.85R
JACKSONVILLE*  CLOUDY    44  31  60 W25G36    29.82R
PITTSFIELD*    CLOUDY    47  32  56 NW22G29   29.86R
$$

ILZ028>032-037-038-041>044-048-051>054-059>061-120000-
CENTRAL ILLINOIS

CITY           SKY/WX    TMP DP  RH WIND       PRES   REMARKS
PONTIAC        MOCLDY    40  28  63 NW16      29.71R
BLOOMINGTON    MOCLDY    41  26  55 NW21G30   29.72R
DECATUR        CLOUDY    46  28  49 W16G30    29.75R
PEORIA         CLOUDY    41  27  57 NW10G26   29.78R
LACON*         CLOUDY    37  31  79 NW17G25   29.76R WCI  27
LINCOLN*       MOCLDY    44  29  56 W12G22    29.77R
SPRINGFIELD    CLOUDY    47  32  56 NW25G38   29.79R
TAYLORVILLE    CLOUDY    46  30  53 W22G29    29.79R
$$

ILZ033-039-045-046-055>057-062-063-120000-
EAST-CENTRAL ILLINOIS

CITY           SKY/WX    TMP DP  RH WIND       PRES   REMARKS
CHAMPAIGN      CLEAR     42  25  50 W17       29.70R
DANVILLE*      PTCLDY    43  25  48 W18G28    29.65R
RANTOUL*       PTCLDY    42  27  55 W16       29.69R
MATTOON        MOCLDY    46  26  45 W17G24    29.73R
PARIS*         CLEAR     44  26  49 W17G30    29.72R
$$

ILZ079-100>102-120000-
SOUTHWEST ILLINOIS

CITY           SKY/WX    TMP DP  RH WIND       PRES   REMARKS
ALTON          MOCLDY    50  32  50 W25G36    29.84R
BELLEVILLE     CLOUDY    52  28  39 NW24G33   29.83R
CAHOKIA*       CLOUDY    52  27  38 NW26G36   29.86R
$$

ILZ064>066-069>071-074>076-080>082-084>086-088>090-092>094-120000-
SOUTH-CENTRAL ILLINOIS

CITY           SKY/WX    TMP DP  RH WIND       PRES   REMARKS
CARBONDALE     CLEAR     54  22  28 NW14G26   29.84R
CAIRO*         PTCLDY    57  36  44 SW12G18   29.82R
EFFINGHAM*     CLOUDY    49  28  44 W18G24    29.78R
MARION         MOCLDY    57  23  26 W8        29.84R
MT. VERNON     PTCLDY    52  27  38 W10G22    29.83R
CENTRALIA*     CLOUDY    52  30  43 W17G25    29.81R
SALEM*         MOCLDY    51  28  40 W15G22    29.81R
METROPOLIS*    MOCLDY    57  32  38 W6        29.81R
$$

ILZ067-068-072-073-078-083-087-091-120000-
SOUTHEAST ILLINOIS

CITY           SKY/WX    TMP DP  RH WIND       PRES   REMARKS
LAWRENCEVILLE  CLEAR     54  25  32 W21G37    29.75R
FLORA*         PTCLDY    52  27  38 W15G30    29.80R
FAIRFIELD*     CLEAR     53  26  36 W9G17     29.80R
HARRISBURG*    CLOUDY    52  33  49 W9        29.81R
ROBINSON*      CLEAR     48  25  40 W22G37    29.76R
CARMI*         CLEAR     52  32  46 W16       29.79R
$$

ABBREVIATIONS USED IN REMARKS
   TC - TEMPERATURE IN CELSIUS
  WCI - WIND CHILL INDEX
   HX - HEAT INDEX
  VSB - VISIBILITY
$$





USA.gov is the U.S. government's official web portal to all federal, state and local government web resources and services.